www.pogodaiklimat.ru

Погода и климат >> Архив погоды >> Финляндия >> Килписйарви


ПОГОДА в Килписйарви

  • Прогноз погоды в Килписйарви
  • Монитор погоды в Килписйарви

АРХИВ ПОГОДЫ в Килписйарви

Время (UTC), дата Ветер
(напр.,м/с)
 
Видим.   Явления Облачность Т
(С)
Тd
(С)
f
(%)
Тe
(С)
Тes
(С)
Комфортность P
(гПа)
Po
(гПа)
Тmin
(С)
Tmax
(С)
R
(мм)
R24
(мм)
S
(см)
12 12.09 ЮВ 4-7
{7}
10 км слаб. дождь {морось} 10/0 1000 м
[]
+10.4 +9.2 92 +8 +9 995.5 939.3 1
15 12.09 С 4-5
{6}
25 км слаб. дождь 10/0 1000 м
[]
+8.8 +7.8 93 +6 +6 996.4 939.8 1
18 12.09 С 3 50 км {дождь, метель} 10/10
[]
+8.2 +5.7 84 +6 +6 996.8 940.0 +7.9 +12.0 7
21 12.09 ЮЗ 3-6
{8}
50 км 10/0 1000 м
[]
+7.3 +4.3 81 +4 +4 997.3 940.4
00 13.09 З 3-5
{5}
50 км 9/4 1000 м
[]
+6.4 +4.4 87 +3 +3 997.7 940.6
03 13.09 З 3-5
{7}
50 км 9/1 1000 м
[]
+5.2 +2.6 83 +2 +2 998.1 940.7
06 13.09 ЮВ 2-3
{4}
50 км 8/4 1500 м
[]
+5.5 +3.5 87 +3 +3 998.7 941.3 +4.1 +8.7
09 13.09 З 5-9
{9}
45 км 9/9 600 м
[]
+8.0 +3.8 75 +4 +5 999.5 942.6
12 13.09 З 6-8
{8}
45 км {ливн. осадки, дождь} 9/1 1000 м
[]
+7.4 +3.7 77 +3 +4 1001.4 944.2
15 13.09 СЗ 7-11
{11}
50 км {ливн. осадки, дождь} 9/1 600 м
[]
+6.3 +1.6 72 +1 +2 1003.3 945.8
18 13.09 З 3-4
{10}
50 км в посл. час морось {ливн. осадки, дождь} 5/1 300 м
[]
+4.2 +1.8 84 +1 +1 1005.4 947.4 +4.2 +8.6
21 13.09 СЗ 5-7
{8}
50 км ясно +3.7 +1.6 86 -1 -1 1006.3 948.1
00 14.09 З 5-7
{7}
50 км 10/0
[]
+3.8 +1.5 85 -1 -1 1006.9 948.7
03 14.09 В 1-2
{5}
50 км 8/4 600 м
[]
+2.1 +0.3 88 0 0 1008.0 949.5
06 14.09 З 1-2
{3}
50 км ясно +2.3 +0.6 89 +1 +1 1008.1 949.6 +1.9 +4.9
09 14.09 З 3-5
{5}
45 км 6/0 600 м
[]
+7.5 +3.0 73 +5 +6 1007.2 949.7
12 14.09 З 4-7
{7}
40 км 1/0 1000 м
[]
+8.1 -0.1 56 +5 +7 1007.3 949.9
15 14.09 З 3-5
{6}
40 км ясно +7.5 0.0 59 +5 +6 1007.2 949.8
18 14.09 З 2-3
{4}
50 км ясно +2.8 +0.2 83 -0 -0 1007.0 948.6 +2.2 +8.6
21 14.09 С 1-1
{2}
50 км ясно -0.1 -1.1 93 -2 -2 1005.6 946.7
00 15.09 Ю 2-5
{5}
50 км 8/0 1000 м
[]
+1.2 +0.4 94 -2 -2 1003.2 944.8
03 15.09 Ю 6-7
{8}
50 км 10/10 1000 м
[]
+3.2 +1.3 87 -3 -3 999.9 942.0
06 15.09 ЮВ 8-14
{14}
10 км слаб. дождь 10/10 300 м
[]
+2.9 +1.5 90 -4 -4 997.7 939.9 -0.6 +3.8 0.2
09 15.09 ЮВ 7-11
{11}
28 км слаб. ливневой дождь 10/0 300 м
[]
+3.2 +1.8 91 -3 -3 996.9 939.2 0.1
12 15.09 Ю 6-11
{11}
50 км в посл. час дождь {ливн. осадки} 10/0 300 м
[]
+5.3 +3.0 85 0 +1 996.0 938.8
15 15.09 ЮВ 6-10
{11}
50 км в посл. час осадки {ливн. осадки} 9/9 600 м
[]
+5.2 +2.4 82 0 0 996.4 939.1
18 15.09 В 6-9
{12}
50 км {ливн. осадки, дождь} 9/9 1000 м
[]
+5.0 -0.2 69 0 0 997.1 939.7 +2.5 +5.9 2
21 15.09 В 5-8
{8}
50 км 9/0 1000 м
[]
+4.4 -1.0 68 -0 -0 998.0 940.5
00 16.09 ЮВ 2-4
{4}
50 км 9/0
[]
+1.6 -1.9 78 -2 -2 999.4 941.3
03 16.09 С 2-3
{5}
50 км 8/0
[]
-0.2 -2.6 84 -4 -4 1000.2 941.6
06 16.09 С 3-4
{4}
45 км ясно +0.1 -1.9 86 -5 -4 1000.1 941.5 -1.5 +5.1
09 16.09 СЗ 4-6
{6}
45 км 9/0 1500 м
[]
+4.0 0.0 75 -0 +1 999.8 942.1
12 16.09 С 4-7
{7}
30 км морось 10/0 1000 м
[]
+4.7 +0.8 76 +1 +2 1000.4 942.8
15 16.09 -7
{7}
30 км морось 10/0 600 м
[]
+4.6 +1.8 82 1000.8 943.2 0.1
18 16.09 С 5 50 км {морось, метель} 9/4 1000 м
[]
+3.2 +1.5 89 -2 -2 1001.4 943.4 -0.2 +5.1 0.2
21 16.09 ЮВ 2-4
{9}
27 км 9/6 300 м
[]
+3.8 +1.3 84 +1 +1 1001.9 944.0
00 17.09 ЮВ 2-4
{4}
50 км в посл. час морось {ливн. осадки, дождь} 9/9 300 м
[]
+3.3 +0.8 84 0 0 1002.4 944.4
03 17.09 СВ 1 20 км слаб. ливневой дождь {морось} 9/9 300 м
[]
+3.0 +0.9 86 +1 +1 1002.8 944.7
06 17.09 СВ 1-2
{4}
22 км морось {ливн. осадки} 10/10 300 м
[]
+3.3 +1.7 89 +2 +2 1003.3 945.3 +2.6 +4.1 0.1
09 17.09 ЮВ 3-6
{7}
20 км морось 10/10 300 м
[]
+4.8 +2.0 82 +1 +1 1004.3 946.5 0.1
12 17.09 ЮВ 3-5
{6}
45 км {дождь, морось} 5/0 600 м
[]
+5.7 +0.2 68 +3 +4 1005.1 947.4
15 17.09 З 3-4
{7}
45 км осадки 9/0 600 м
[]
+5.1 +2.5 83 +2 +2 1006.0 948.1
18 17.09 С 4 14 км слаб. дождь 10/10 300 м
[]
+1.8 +1.0 94 -3 -3 1007.5 948.9 +1.8 +6.8 1
21 17.09 СВ 1-2
{3}
35 км {морось, туман} 10/0 1000 м
[]
+2.2 +1.2 93 0 0 1008.2 949.6
00 18.09 СВ 1-1
{3}
6000 м слаб. дождь со снегом 10/0 300 м
[]
+1.2 +0.4 94 -1 -1 1008.9 950.1 1
03 18.09 СВ 2-2
{2}
26 км слаб. дождь {морось} 10/0 300 м
[]
+1.1 +0.4 95 -3 -3 1009.2 950.3 0.2
06 18.09 С 2 50 км слаб. снег {дождь} 9/9 300 м
[]
+1.2 0.0 92 -2 -2 1009.9 951.0 +0.7 +2.4 3 <0.5
09 18.09 С 3-5
{6}
35 км {снег} 10/0 600 м
[]
+2.5 +0.3 85 -2 -1 1010.9 952.2
12 18.09 С 3-7
{8}
50 км в посл. час снег {дождь} 10/6 300 м
[]
+1.9 +0.4 90 -2 -2 1012.0 953.2 0.1
15 18.09 С 6-7
{9}
50 км ясно +2.3 -0.5 82 -4 -3 1012.2 953.4
18 18.09 С 4 50 км {метель} 6/6 600 м
[]
+0.5 -1.0 90 -5 -5 1012.9 953.7 +0.4 +3.4 2
21 18.09 С 4-5
{5}
50 км 9/6 600 м
[]
+0.5 -0.8 91 -5 -5 1013.1 953.9
00 19.09 С 5-7
{7}
50 км 1/0 200 м
[]
-0.6 -1.5 94 -7 -7 1013.6 954.1
03 19.09 СЗ 4-6
{6}
40 км 9/1 1000 м
[]
-0.1 -1.7 89 -6 -6 1012.8 953.5
06 19.09 З 4 21 км ливневой дождь {снег} 8/8 1000 м
[]
+0.3 -0.5 94 -5 -5 1012.1 952.9 -0.7 +0.7 <0.5
09 19.09 С 4-8
{8}
45 км {ливн. осадки} 8/0 300 м
[]
+2.4 -0.4 82 -2 -2 1012.6 953.8

 

Местоположение метеостанции Килписйарви (Финляндия): широта 69.05 долгота 20.79 высота над уровнем моря 480 м.

В архиве по умолчанию представлена погода в Килписйарви за последнюю неделю. Архивные данные за месяц целиком и за предыдущие месяцы, начиная с января 2011 года, Вы можете получить, выбрав интересующий диапазон дат из раскрывающегося списка и нажав кнопку "Ввод!".


*Определитесь, кто Вы:
робот инопланетянин человек

Внимание! Время в таблицах - всемирное. Для получения местного времени необходимо прибавить поправку, которая равна 1 ч.

Смотрите также архив погоды в соседних городах и на ближайших метеорологических станциях:

Погода на Саане (Финляндия) (2 км)
Погода в Шиботне (Норвегия) (42 км)
Погода в Наймакке (Швеция) (51 км)
Погода в Дивидалене (Норвегия) (53 км)
Погода в Норднесфьеллете (Норвегия) (60 км)
Погода в Люнгене (Норвегия) (63 км)
Погода в Сёрхьюсен аэропорту (Норвегия) (83 км)
Погода в Кёутукейну (Норвегия) (89 км)
Погода в Бардуфоссе (Норвегия) (89 км)
Погода в Каресуандо (Швеция) (95 км)

Пояснения к столбцам:

Ветер - указаны скорость ветра в м/с - средняя за 10 мин, порывы в срок и между сроками (в фигурных скобках) и направление, откуда дует ветер: С - северный, СВ - северо-восточный, В - восточный, ЮВ - юго-восточный, Ю - южный, ЮЗ - юго-западный, З - западный, СЗ - северо-западный.
Видимость - горизонтальная дальность видимости в метрах или километрах. При видимости от 1 до 10 км при отсутствии осадков обычно наблюдается дымка, при ухудшении видимости до 1 км и менее - туман. В сухую погоду видимость может ухудшаться дымом, пылью или мглою.
Явления - указаны атмосферные явления, наблюдавшиеся в срок или в последний час перед сроком; фигурными скобками обозначены явления, наблюдавшиеся между сроками (за 1-3 часа до срока); квадратными скобками обозначены град или гололедные отложения с указанием их диаметра в мм.
Облачность - указаны через наклонную черту общая и нижняя облачность в баллах и высота нижней границы облаков в метрах; квадратными скобками обозначены формы облаков: Ci - перистые, Cs - перисто-слоистые, Cc - перисто-кучевые, Ac - высококучевые, As - высокослоистые, Sc - слоисто-кучевые, Ns - слоисто-дождевые, Cu - кучевые, Cb - кучево-дождевые. Подробнее классификацию облаков см. в Атласе облаков (PDF).
T - Температура воздуха - температура, измеренная на высоте 2 м над землей.
Td - Температура точки росы - температура, при понижении до которой содержащийся в воздухе водяной пар достигнет насыщения.
f - Относительная влажность воздуха - влажноcть воздуха, измеренная на высоте 2 м над землей.
Te - Эффективная температура - температура, которую ощущает одетый по сезону человек в тени. Характеристика душности погоды. При расчете учитывается влияние влажности воздуха и скорости ветра на теплоощущения человека.
Tes - Эффективная температура на солнце - температура, которую ощущает человек, с поправкой на солнечный нагрев. Характеристика знойности погоды. Зависит от высоты солнца над горизонтом, облачности и скорости ветра. Ночью, в пасмурную погоду, а также при ветре 12 м/с и более поправка равна нулю.
P - Атмосферное давление - приведенное к уровню моря атмосферное давление.
Po - Атмосферное давление - измеренное на уровне метеостанции атмосферное давление.
Tmin - Минимальная температура - минимум температуры воздуха на высоте 2 м над землей.
Tmax - Максимальная температура - максимум температуры воздуха на высоте 2 м над землей.
R - Количество осадков - Количество выпавших осадков за период времени, мм. При наведении курсора мыши на число - период времени, за который выпало указанное количество осадков.
R24 - Количество осадков - Количество выпавших осадков за 24 часа, мм.
S - Снежный покров - Высота снежного покрова, см. При наведении курсора мыши на число - состояние снежного покрова и степень покрытия местности в баллах.